Total_Precipitation_Accumulation
0.05 0.06 0.22 0.28 0.30 0.29 0.29 0.29 0.27 0.25 0.25 0.26 0.27 0.28 0.27 0.28 0.30 0.30 0.33 0.37 0.40 0.37 0.39 0.45 0.44 0.44 0.42 0.38 0.38 0.37 0.30 0.26 0.26 0.29 0.37 0.41 0.38 0.31 0.26 0.24 0.21 0.28 0.37
0.04 0.06 0.16 0.21 0.25 0.27 0.28 0.26 0.23 0.20 0.20 0.21 0.20 0.22 0.23 0.24 0.26 0.27 0.32 0.39 0.43 0.38 0.38 0.42 0.46 0.46 0.45 0.42 0.42 0.38 0.27 0.19 0.16 0.16 0.19 0.26 0.31 0.29 0.26 0.25 0.26 0.40 0.42
0.02 0.04 0.10 0.16 0.21 0.24 0.25 0.23 0.20 0.17 0.16 0.16 0.15 0.17 0.19 0.21 0.24 0.26 0.30 0.32 0.37 0.41 0.40 0.40 0.49 0.53 0.51 0.47 0.44 0.38 0.30 0.18 0.11 0.10 0.10 0.19 0.29 0.35 0.31 0.27 0.28 0.32 0.37
0.01 0.02 0.05 0.13 0.19 0.23 0.24 0.22 0.19 0.17 0.15 0.14 0.15 0.16 0.18 0.20 0.22 0.25 0.30 0.33 0.37 0.47 0.49 0.52 0.59 0.59 0.53 0.47 0.42 0.36 0.33 0.22 0.11 0.08 0.07 0.18 0.34 0.41 0.36 0.31 0.27 0.29 0.32
0.00 0.01 0.04 0.11 0.18 0.21 0.22 0.23 0.22 0.19 0.16 0.15 0.15 0.15 0.17 0.19 0.21 0.24 0.27 0.32 0.38 0.49 0.49 0.48 0.54 0.53 0.48 0.45 0.39 0.40 0.43 0.30 0.14 0.06 0.05 0.12 0.28 0.45 0.40 0.37 0.30 0.26 0.28
0.00 0.01 0.04 0.11 0.18 0.20 0.23 0.27 0.27 0.22 0.18 0.18 0.17 0.17 0.18 0.19 0.19 0.21 0.22 0.23 0.27 0.35 0.38 0.42 0.45 0.46 0.44 0.41 0.34 0.38 0.46 0.39 0.16 0.05 0.06 0.10 0.22 0.41 0.40 0.38 0.34 0.29 0.26
0.00 0.01 0.03 0.11 0.19 0.21 0.23 0.28 0.29 0.23 0.19 0.18 0.19 0.22 0.21 0.20 0.20 0.20 0.17 0.17 0.17 0.20 0.26 0.34 0.42 0.46 0.46 0.40 0.35 0.38 0.45 0.36 0.13 0.12 0.13 0.14 0.20 0.29 0.42 0.43 0.37 0.34 0.30
0.00 0.01 0.04 0.13 0.20 0.22 0.23 0.27 0.32 0.27 0.23 0.20 0.23 0.25 0.25 0.24 0.25 0.25 0.21 0.17 0.16 0.15 0.18 0.24 0.35 0.52 0.51 0.39 0.38 0.43 0.40 0.21 0.08 0.08 0.12 0.17 0.20 0.33 0.63 0.71 0.51 0.40 0.36
0.01 0.02 0.04 0.11 0.17 0.21 0.23 0.27 0.32 0.30 0.27 0.25 0.26 0.27 0.27 0.27 0.26 0.27 0.25 0.23 0.23 0.21 0.18 0.20 0.29 0.48 0.49 0.42 0.43 0.47 0.33 0.13 0.05 0.11 0.11 0.19 0.19 0.40 0.75 0.84 0.71 0.54 0.43
0.01 0.02 0.05 0.10 0.15 0.19 0.22 0.26 0.29 0.29 0.29 0.28 0.28 0.26 0.24 0.24 0.26 0.24 0.21 0.19 0.21 0.23 0.21 0.19 0.22 0.34 0.40 0.40 0.48 0.43 0.20 0.07 0.03 0.07 0.17 0.18 0.16 0.41 0.82 0.91 0.84 0.70 0.56
0.03 0.04 0.06 0.12 0.15 0.18 0.21 0.23 0.26 0.26 0.25 0.26 0.26 0.23 0.23 0.22 0.22 0.21 0.17 0.16 0.19 0.21 0.21 0.23 0.24 0.29 0.33 0.32 0.37 0.29 0.12 0.05 0.05 0.09 0.16 0.15 0.18 0.39 0.78 0.94 0.89 0.81 0.73
0.03 0.04 0.07 0.11 0.15 0.18 0.19 0.22 0.25 0.24 0.21 0.19 0.19 0.21 0.23 0.24 0.23 0.20 0.18 0.17 0.20 0.20 0.22 0.26 0.28 0.28 0.28 0.26 0.37 0.30 0.14 0.10 0.10 0.06 0.09 0.08 0.20 0.40 0.65 0.86 0.95 0.89 0.84
0.03 0.05 0.07 0.11 0.15 0.17 0.20 0.21 0.24 0.23 0.22 0.21 0.21 0.22 0.27 0.29 0.29 0.26 0.23 0.21 0.20 0.19 0.20 0.24 0.29 0.26 0.31 0.45 0.59 0.46 0.31 0.24 0.15 0.08 0.04 0.06 0.15 0.31 0.51 0.69 0.89 1.00 1.00
0.05 0.06 0.09 0.12 0.15 0.17 0.21 0.24 0.22 0.21 0.19 0.19 0.20 0.20 0.22 0.24 0.23 0.22 0.21 0.19 0.19 0.19 0.19 0.21 0.23 0.26 0.29 0.36 0.42 0.38 0.31 0.27 0.18 0.13 0.08 0.07 0.10 0.17 0.31 0.48 0.68 0.94 1.04
0.06 0.07 0.09 0.12 0.15 0.18 0.22 0.26 0.24 0.22 0.19 0.16 0.15 0.15 0.14 0.16 0.16 0.17 0.15 0.15 0.15 0.16 0.17 0.18 0.17 0.18 0.21 0.25 0.25 0.25 0.25 0.23 0.19 0.18 0.15 0.11 0.09 0.12 0.19 0.32 0.46 0.71 0.98
0.07 0.08 0.09 0.11 0.13 0.17 0.19 0.22 0.25 0.24 0.23 0.21 0.18 0.16 0.14 0.12 0.11 0.11 0.11 0.11 0.11 0.12 0.12 0.15 0.15 0.15 0.17 0.20 0.19 0.18 0.19 0.17 0.16 0.16 0.17 0.15 0.13 0.12 0.17 0.26 0.36 0.48 0.75
0.06 0.08 0.09 0.11 0.13 0.17 0.18 0.19 0.23 0.25 0.25 0.24 0.20 0.17 0.14 0.12 0.11 0.10 0.10 0.10 0.10 0.11 0.15 0.20 0.22 0.24 0.24 0.24 0.22 0.22 0.21 0.19 0.18 0.19 0.20 0.19 0.19 0.17 0.19 0.29 0.36 0.40 0.55
0.05 0.08 0.09 0.12 0.13 0.15 0.19 0.21 0.22 0.26 0.27 0.24 0.22 0.20 0.17 0.15 0.14 0.13 0.11 0.10 0.09 0.11 0.16 0.23 0.28 0.30 0.29 0.30 0.28 0.29 0.30 0.29 0.25 0.25 0.26 0.23 0.23 0.21 0.20 0.25 0.34 0.41 0.52
0.06 0.07 0.10 0.12 0.13 0.14 0.18 0.24 0.22 0.25 0.28 0.26 0.23 0.23 0.20 0.19 0.19 0.17 0.15 0.13 0.12 0.14 0.17 0.22 0.25 0.29 0.30 0.33 0.34 0.35 0.37 0.39 0.36 0.31 0.27 0.25 0.24 0.23 0.23 0.25 0.29 0.33 0.45
0.07 0.08 0.09 0.12 0.15 0.15 0.18 0.26 0.28 0.26 0.28 0.28 0.23 0.21 0.20 0.20 0.20 0.18 0.17 0.16 0.17 0.19 0.21 0.24 0.26 0.28 0.30 0.35 0.40 0.38 0.41 0.40 0.39 0.35 0.32 0.33 0.32 0.26 0.24 0.25 0.28 0.28 0.31
0.06 0.08 0.10 0.10 0.16 0.18 0.18 0.23 0.27 0.24 0.24 0.26 0.24 0.20 0.20 0.18 0.18 0.18 0.17 0.17 0.17 0.18 0.20 0.24 0.26 0.27 0.27 0.31 0.35 0.32 0.30 0.31 0.32 0.30 0.28 0.30 0.34 0.37 0.36 0.33 0.31 0.30 0.31
0.04 0.06 0.09 0.09 0.12 0.17 0.17 0.18 0.22 0.22 0.22 0.23 0.24 0.24 0.23 0.21 0.18 0.18 0.18 0.20 0.19 0.17 0.16 0.17 0.21 0.25 0.24 0.25 0.33 0.37 0.31 0.27 0.25 0.22 0.22 0.25 0.31 0.38 0.41 0.42 0.41 0.38 0.35
0.04 0.05 0.08 0.09 0.09 0.13 0.18 0.21 0.25 0.29 0.27 0.27 0.27 0.25 0.25 0.24 0.20 0.18 0.18 0.20 0.20 0.20 0.18 0.16 0.18 0.23 0.25 0.25 0.29 0.44 0.50 0.36 0.26 0.19 0.19 0.20 0.22 0.24 0.27 0.31 0.36 0.39 0.40
0.04 0.05 0.08 0.11 0.10 0.10 0.14 0.22 0.25 0.28 0.26 0.22 0.21 0.23 0.24 0.24 0.23 0.19 0.19 0.20 0.22 0.23 0.21 0.20 0.19 0.21 0.25 0.26 0.27 0.30 0.37 0.40 0.46 0.32 0.13 0.11 0.12 0.13 0.15 0.18 0.22 0.26 0.32
0.02 0.03 0.06 0.11 0.12 0.11 0.12 0.15 0.22 0.24 0.23 0.24 0.25 0.24 0.26 0.26 0.24 0.22 0.20 0.21 0.22 0.23 0.22 0.22 0.21 0.23 0.24 0.26 0.29 0.29 0.27 0.26 0.34 0.50 0.28 0.10 0.09 0.09 0.12 0.15 0.17 0.22 0.27
0.03 0.04 0.05 0.08 0.11 0.12 0.14 0.15 0.19 0.22 0.23 0.26 0.28 0.29 0.27 0.27 0.26 0.24 0.23 0.23 0.23 0.24 0.24 0.25 0.25 0.24 0.24 0.26 0.28 0.30 0.35 0.38 0.33 0.42 0.40 0.21 0.15 0.11 0.11 0.13 0.16 0.20 0.27